sat.trackr.live / text

‹ back to catalog

STARLINK-33762

NORAD 63442 · 2025-069K

PAYLOAD ACTIVE UNKNOWN

§ Identity

Operator
Country
US
Launch date
2025-04-04
Launch site
AFWTR
Launch vehicle
Mass (kg)
RCS (m²)

Purposes: comms

External: N2YO · Heavens-Above · Gunter

§ Orbital elements

Epoch: 2026-09-20T20:19:17.730336Z

Period
93.85 min
Inclination
53.1600°
Eccentricity
0.0001319
Mean motion
15.34396710 rev/d
Perigee alt
461.8 km
Apogee alt
463.6 km
Semi-major
6,840.9 km
B*
3.3286e-4
RAAN
308.2123°
Arg perigee
71.6389°
Mean anomaly
288.4757°
Rev number
8,340

§ Raw data

STARLINK-337621 63442U 25069K   26263.84673299  .00010885  00000+0  33286-3 0  99942 63442  53.1600 308.2123 0001319  71.6389 288.4757 15.34396710 83408

JSON: /api/v1/satellites/63442 · /tle

For live sub-satellite position, see the globe view (requires WebGL).

§ Visibility from observer

Set your observer location to see the next 7 days of passes ≥ 10°. The values pass through the URL so the page stays shareable.

No JS? Fill the form by hand. The geolocation button needs JavaScript.